COSMOS 2168

Satellite information

Favourite Embed

Satellite Type and Status

PAYLOADIN ORBIT

Key statistics

Satellite COSMOS 2168 at a glance.

Uptime

12403

Days in orbit

Revolutions

≈ 12.7

Per day

Orbit

LEO

Low Earth Orbit

Inclination

82.6

Latest

Satellite identification and parameters

Extended collection of information and parameters for COSMOS 2168.

Object identification

Identified? True

Debris? False

Object name: COSMOS 2168

International designator: 1991-077D

Object number (NORAD): 21782

Object ID (CCSDS): 21782

Country: COMMONWEALTH OF INDEPENDENT STATES (CIS)

Current information (Y/N): Y

RCS size: LARGE

Orbital parameters

Period: 113.787 minutes

Inclination: 82.6012 deg

SMA: 7778.359 km

Apoapsis: 1410.77 km

Periapsis: 1389.679 km

RAAN: 2.2421 deg

Eccentricy: 0.00135575

Argument of periapsis: 191.4335 deg

Mean anomaly: 341.9981 deg

Mean motion: 12.65525139 rev/day

Mean motion (dot): 0.00000022 rev/day2

B* drag term: 0.000058663855 1/REarth

Two-line elements (TLE)

Creation date: Oct. 27, 2025, 2:46 a.m.

Reference frame: TEME

Reference center: EARTH

Epoch: Oct. 26, 2025, 10:37 p.m. UTC

TLE line 0: 0 COSMOS 2168

TLE line 1: 1 21782U 91077D 25299.94293588 .00000022 00000-0 58664-4 0 9996

TLE line 2: 2 21782 82.6012 2.2421 0013558 191.4335 341.9981 12.65525139568294

Live tracking on map

Real-time ground track for satellite COSMOS 2168.

In-orbit conjunctions

A list of the most updated potential collisions computed for object COSMOS 2168.

Target Orbit TCA Probability of collision Miss distance Type
DELTA 1 DEB SSO 2025-08-28 23:13:23 0.001856262 151.0 (m) DEBRIS
SL-14 DEB LEO 2024-06-08 09:26:29 0.0001171686 782.0 (m) DEBRIS

Associated space launch

Second generation store-dump military communications satellite

COSMOS 2168 was lifted into orbit during the mission ‘Tsiklon-3 | Strela-3 73 to 78’, on board a Tsiklon-3 space rocket.

The launch took place on Nov. 12, 1991, 8:09 p.m. from 32/1.

For more information about the launch, click the button.

Launch to space Tsiklon-3 | Strela-3 73 to 78
Tsiklon-3 | Strela-3 73 to 78

Agency: N/A

Status: Launch Successful

Launch date: Nov. 12, 1991, 8:09 p.m. UTC

Rocket: Tsiklon-3

Launch pad: 32/1

Location: Plesetsk Cosmodrome, Russian Federation

...

Latest news about this satellite

There are no fresh news available about this satellite. Check back as we update our databases every day.


Newsletter sign-up

Weekly statistics, charts and insights to help you stay on top of the space industry.